SWR72 LSZH-KIAD

Flight info

Callsign SWR72
Flight time N/A
Altitude 34000
Route VEBIT1X VEBIT T10 TORPA DCT REKLA DCT RLP DCT ROTSI/N0463F360 DCT AMODO DCT COHPA UM729 RESMI DCT TABOV DCT PIGOP DCT DITAL UN491 LGL UN502 ARGED DCT SENLO DCT JSY DCT LIZAD DCT LULOX/M081F360 DCT GIPER/N0474F360 DCT ADARA/M081F370 NATF MUSAK/N0464F380 N288A KANNI DCT BOS DCT BAF HYPER9
Aircraft A339/H-SADE1E2E3GHIJ3J5M1P2RWXY/LB2D1

Departure

Time 2026-05-01 08:08
Airport Zürich Airport (LSZH)

Arrival

Time N/A
Airport Washington Dulles International Airport (KIAD)
Time Latitude Longitude Altitude Speed Heading
2026-05-01 07:53 47.45573 8.55743 1405 ft 0 kts
2026-05-01 08:01 47.45574 8.55743 1405 ft 0 kts
2026-05-01 08:01 47.45588 8.55746 1405 ft 3 kts
2026-05-01 08:01 47.45611 8.55761 1405 ft 4 kts 45°
2026-05-01 08:02 47.45636 8.55850 1406 ft 4 kts 91°
2026-05-01 08:02 47.45633 8.55894 1407 ft 3 kts 96°
2026-05-01 08:03 47.45628 8.55954 1408 ft 1 kts 96°
2026-05-01 08:03 47.45628 8.55968 1408 ft 0 kts 96°
2026-05-01 08:03 47.45622 8.56076 1411 ft 11 kts 95°
2026-05-01 08:04 47.45604 8.56366 1417 ft 15 kts 96°
2026-05-01 08:04 47.45578 8.56749 1423 ft 20 kts 95°
2026-05-01 08:05 47.45604 8.57001 1426 ft 8 kts 23°
2026-05-01 08:05 47.45652 8.56967 1424 ft 9 kts 296°
2026-05-01 08:05 47.45674 8.56865 1422 ft 2 kts 278°
2026-05-01 08:07 47.45773 8.55583 1400 ft 127 kts 274°
2026-05-01 08:07 47.46038 8.52136 1710 ft 195 kts 277°
2026-05-01 08:08 47.46167 8.50203 2495 ft 185 kts 277°
2026-05-01 08:08 47.45761 8.46795 3545 ft 181 kts 221°
2026-05-01 08:09 47.43586 8.44486 4058 ft 207 kts 229°
2026-05-01 08:09 47.42677 8.42750 4349 ft 222 kts 236°
2026-05-01 08:09 47.41796 8.40787 4647 ft 238 kts 237°
2026-05-01 08:10 47.39827 8.36470 5272 ft 270 kts 237°
2026-05-01 08:10 47.37896 8.31644 6486 ft 276 kts 243°
2026-05-01 08:11 47.36115 8.26614 7659 ft 282 kts 243°
2026-05-01 08:11 47.34275 8.21425 8739 ft 290 kts 243°
2026-05-01 08:12 47.32383 8.16103 9739 ft 299 kts 242°
2026-05-01 08:12 47.31408 8.13367 10327 ft 302 kts 242°
2026-05-01 08:12 47.29393 8.07708 10998 ft 326 kts 242°
2026-05-01 08:13 47.28320 8.04695 11165 ft 340 kts 242°